Weather History for KEYW - April, 2013

Change the Weather History Date:

Tuesday, April 9, 2013

  Actual Average Record
Temperature  
Mean Temperature 79 °F 76 °F  
Max Temperature 83 °F 81 °F 88 °F (1957)
Min Temperature 75 °F 71 °F 55 °F (2009)
Degree Days  
Heating Degree Days 0 0  
Month to date heating degree days 0 0  
Since 1 July heating degree days 28 73  
Cooling Degree Days 14 11  
Month to date cooling degree days 104 92  
Year to date cooling degree days 800 702  
Growing Degree Days 28 (Base 50)    
Moisture  
Dew Point 70 °F    
Average Humidity 76    
Maximum Humidity 82    
Minimum Humidity 69    
Precipitation  
Precipitation 0.00 in 0.06 in 2.64 in (1985)
Month to date precipitation 1.41 0.61  
Year to date precipitation 5.15 6.19  
Snow  
Snow 0.00 in - - ()
Month to date snowfall 0.0  
Since 1 July snowfall 0.0  
Snow Depth 0.00 in    
Sea Level Pressure  
Sea Level Pressure 30.07 in    
Wind  
Wind Speed 13 mph (East)    
Max Wind Speed 20 mph    
Max Gust Speed 26 mph    
Visibility 10 miles    
Events      
T = Trace of Precipitation, MM = Missing Value Source: NWS Daily Summary

Daily Weather History Graph

Daily Weather History Graph

Search for Another Location

Airport or City:

Trip Planner

Search our weather history database for the weather conditions in past years. The results will help you decide how hot, cold, wet, or windy it might be!

Date:

Astronomy

Apr. 09, 2013 Rise Set
Actual Time 7:10 AM EDT 7:46 PM EDT
Civil Twilight 6:47 AM EDT 8:09 PM EDT
Nautical Twilight 6:20 AM EDT 8:36 PM EDT
Astronomical Twilight 5:53 AM EDT 9:04 PM EDT
Moon 6:29 AM EDT (4/9) 7:20 PM EDT (4/9)
Length of Visible Light 13h 22m
Length of Day
12h 36m
Waning Crescent, 1% of the Moon is Illuminated
Apr 9
Waning Crescent
Apr 10
New
Apr 18
First Quarter
Apr 25
Full
May 2
Last Quarter

Hourly Weather History & Observations

Time (EDT) Temp. Heat Index Dew Point Humidity Pressure Visibility Wind Dir Wind Speed Gust Speed Precip Events Conditions
12:53 AM 75.9 °F - 66.9 °F 74% 30.10 in 10.0 mi ESE 12.7 mph - N/A   Clear
1:53 AM 75.9 °F - 66.9 °F 74% 30.08 in 10.0 mi East 15.0 mph - N/A   Clear
2:53 AM 75.9 °F - 66.9 °F 74% 30.05 in 10.0 mi East 11.5 mph - N/A   Clear
3:53 AM 75.0 °F - 68.0 °F 79% 30.04 in 10.0 mi East 10.4 mph - N/A   Partly Cloudy
4:53 AM 75.0 °F - 68.0 °F 79% 30.04 in 10.0 mi East 8.1 mph - N/A   Clear
5:53 AM 75.0 °F - 68.0 °F 79% 30.05 in 10.0 mi East 9.2 mph - N/A   Clear
6:53 AM 75.0 °F - 68.0 °F 79% 30.05 in 10.0 mi East 8.1 mph - N/A   Clear
7:53 AM 75.9 °F - 70.0 °F 82% 30.07 in 10.0 mi East 6.9 mph - N/A   Clear
8:53 AM 78.1 °F - 70.0 °F 76% 30.09 in 10.0 mi East 12.7 mph - N/A   Clear
9:53 AM 79.0 °F - 69.1 °F 72% 30.10 in 10.0 mi East 15.0 mph - N/A   Clear
10:53 AM 80.1 °F 83.6 °F 71.1 °F 74% 30.11 in 10.0 mi East 12.7 mph - N/A   Clear
11:53 AM 81.0 °F 84.4 °F 70.0 °F 69% 30.12 in 10.0 mi East 15.0 mph - N/A   Clear
12:53 PM 81.0 °F 84.4 °F 70.0 °F 69% 30.11 in 10.0 mi East 13.8 mph 20.7 mph N/A   Partly Cloudy
1:53 PM 82.0 °F 86.3 °F 71.1 °F 69% 30.09 in 10.0 mi East 13.8 mph 21.9 mph N/A   Clear
2:53 PM 82.9 °F 88.0 °F 72.0 °F 69% 30.07 in 10.0 mi East 15.0 mph - N/A   Scattered Clouds
3:53 PM 82.0 °F 86.3 °F 71.1 °F 69% 30.06 in 10.0 mi East 17.3 mph - N/A   Partly Cloudy
4:53 PM 81.0 °F 85.2 °F 72.0 °F 74% 30.05 in 10.0 mi East 16.1 mph - N/A   Partly Cloudy
5:53 PM 80.1 °F 83.6 °F 71.1 °F 74% 30.04 in 10.0 mi East 12.7 mph 26.5 mph N/A   Partly Cloudy
6:53 PM 79.0 °F - 70.0 °F 74% 30.04 in 10.0 mi East 11.5 mph 25.3 mph N/A   Clear
7:53 PM 77.0 °F - 69.1 °F 76% 30.04 in 10.0 mi East 17.3 mph 24.2 mph N/A   Clear
8:53 PM 77.0 °F - 69.1 °F 76% 30.05 in 10.0 mi East 15.0 mph 24.2 mph N/A   Clear
9:53 PM 77.0 °F - 70.0 °F 79% 30.08 in 10.0 mi East 10.4 mph 23.0 mph N/A   Clear
10:53 PM 77.0 °F - 70.0 °F 79% 30.09 in 10.0 mi East 16.1 mph 23.0 mph N/A   Scattered Clouds
11:03 PM 77.0 °F - 69.8 °F 78% 30.09 in 10.0 mi East 17.3 mph 25.3 mph N/A   Mostly Cloudy
11:22 PM 77.0 °F - 69.8 °F 78% 30.09 in 10.0 mi East 16.1 mph 23.0 mph N/A   Scattered Clouds
11:53 PM 77.0 °F - 70.0 °F 79% 30.09 in 10.0 mi East 16.1 mph 24.2 mph N/A   Clear